sat.trackr.live / text

‹ back to catalog

KUIPER-00051

NORAD 64511 · 2025-134M

PAYLOAD ACTIVE UNKNOWN

§ Identity

Operator
Country
US
Launch date
2025-06-23
Launch site
AFETR
Launch vehicle
Mass (kg)
RCS (m²)

External: N2YO · Heavens-Above · Gunter

§ Orbital elements

Epoch: 2026-05-24T16:17:24.743904Z

Period
97.50 min
Inclination
51.8995°
Eccentricity
0.0000639
Mean motion
14.76868978 rev/d
Perigee alt
638.8 km
Apogee alt
639.7 km
Semi-major
7,017.4 km
B*
7.0269e-3
RAAN
250.6462°
Arg perigee
43.0121°
Mean anomaly
317.0890°
Rev number
5,141

§ Raw data

KUIPER-000511 64511U 25134M   26144.67875861  .00049983  00000+0  70269-2 0  99952 64511  51.8995 250.6462 0000639  43.0121 317.0890 14.76868978 51413

JSON: /api/v1/satellites/64511 · /tle

For live sub-satellite position, see the globe view (requires WebGL).

§ Visibility from observer

Set your observer location to see the next 7 days of passes ≥ 10°. The values pass through the URL so the page stays shareable.

No JS? Fill the form by hand. The geolocation button needs JavaScript.